Parsons, KS

3:06 AM CST on January 23, 2018 (GMT -0600)
Tri-City

Weather History for KPPF - October, 2011

Change the Weather History Date:

Thursday, October 13, 2011

  Actual Average Record
Temperature  
Mean Temperature 63 °F -  
Max Temperature 79 °F 72 °F 90 °F (1952)
Min Temperature 46 °F 47 °F 28 °F (1987)
Degree Days  
Heating Degree Days 2    
Growing Degree Days 13 (Base 50)    
Moisture  
Dew Point 42 °F    
Average Humidity 54    
Maximum Humidity 80    
Minimum Humidity 20    
Precipitation  
Precipitation 0.00 in - - ()
Sea Level Pressure  
Sea Level Pressure 29.87 in    
Wind  
Wind Speed 8 mph (NW)    
Max Wind Speed 20 mph    
Max Gust Speed 33 mph    
Visibility 10 miles    
Events      
Averages and records for this station are not official NWS values.
T = Trace of Precipitation, MM = Missing Value Source: NWS Daily Summary

Daily Weather History Graph

Daily Weather History Graph

Search for Another Location

Airport or City:

Trip Planner

Search our weather history database for the weather conditions in past years. The results will help you decide how hot, cold, wet, or windy it might be!

Date:

Astronomy

Oct. 13, 2011 Rise Set
Actual Time 7:27 AM CDT 6:48 PM CDT
Civil Twilight 7:01 AM CDT 7:14 PM CDT
Nautical Twilight 6:31 AM CDT 7:44 PM CDT
Astronomical Twilight 6:01 AM CDT 8:14 PM CDT
Moon 7:28 PM CDT (10/13) 8:57 AM CDT (10/13)
Length of Visible Light 12h 12m
Length of Day
11h 20m
Full, 98% of the Moon is Illuminated
Oct 13
Full
Oct 19
Last Quarter
Oct 26
New
Nov 2
First Quarter
Nov 10
Full

Hourly Weather History & Observations

Time (CDT) Temp. Dew Point Humidity Pressure Visibility Wind Dir Wind Speed Gust Speed Precip Events Conditions
12:52 AM 61.0 °F 51.1 °F 70% 29.81 in 10.0 mi NW 8.1 mph - N/A   Clear
1:52 AM 57.9 °F 48.9 °F 72% 29.82 in 10.0 mi NW 6.9 mph - N/A   Clear
2:52 AM 57.0 °F 48.0 °F 72% 29.83 in 10.0 mi NW 9.2 mph - N/A   Clear
3:52 AM 55.9 °F 46.9 °F 72% 29.83 in 10.0 mi NW 6.9 mph - N/A   Clear
4:52 AM 54.0 °F 46.0 °F 75% 29.84 in 10.0 mi NW 5.8 mph - N/A   Clear
5:52 AM 53.1 °F 45.0 °F 74% 29.86 in 10.0 mi NW 5.8 mph - N/A   Clear
6:52 AM 52.0 °F 44.1 °F 74% 29.87 in 10.0 mi NW 6.9 mph - N/A   Clear
7:52 AM 52.0 °F 43.0 °F 71% 29.89 in 10.0 mi WNW 5.8 mph - N/A   Clear
8:52 AM 57.9 °F 44.1 °F 60% 29.91 in 10.0 mi NW 10.4 mph - N/A   Clear
9:52 AM 62.1 °F 43.0 °F 50% 29.92 in 10.0 mi NW 11.5 mph - N/A   Clear
10:52 AM 68.0 °F 43.0 °F 40% 29.93 in 10.0 mi NW 11.5 mph - N/A   Clear
11:52 AM 72.0 °F 42.1 °F 34% 29.91 in 10.0 mi NW 8.1 mph - N/A   Clear
12:52 PM 75.9 °F 37.9 °F 25% 29.91 in 10.0 mi NW 13.8 mph 26.5 mph N/A   Clear
1:52 PM 78.1 °F 37.0 °F 23% 29.88 in 10.0 mi NW 13.8 mph 21.9 mph N/A   Clear
2:52 PM 78.1 °F 35.1 °F 21% 29.86 in 10.0 mi NW 19.6 mph 26.5 mph N/A   Clear
3:52 PM 77.0 °F 33.1 °F 20% 29.84 in 10.0 mi NNW 12.7 mph 33.4 mph N/A   Clear
4:52 PM 75.9 °F 32.0 °F 20% 29.83 in 10.0 mi NNW 15.0 mph 19.6 mph N/A   Clear
5:52 PM 73.9 °F 33.1 °F 22% 29.84 in 10.0 mi NNW 8.1 mph - N/A   Clear
6:52 PM 64.9 °F 37.0 °F 36% 29.85 in 10.0 mi WNW 3.5 mph - N/A   Clear
7:52 PM 55.0 °F 42.1 °F 62% 29.87 in 10.0 mi Calm Calm - N/A   Clear
8:52 PM 51.1 °F 43.0 °F 74% 29.88 in 10.0 mi Calm Calm - N/A   Clear
9:52 PM 48.9 °F 42.1 °F 77% 29.90 in 10.0 mi Calm Calm - N/A   Clear
10:52 PM 48.0 °F 42.1 °F 80% 29.89 in 10.0 mi Calm Calm - N/A   Clear
11:52 PM 46.9 °F 41.0 °F 80% 29.89 in 10.0 mi Calm Calm - N/A   Clear